CZ-6A DEB, 58430

Orbit data source: Space-Track

CZ-6A DEB, 58430 is space debris in SSO originally from a launch on Fri, 11 Nov 2022 UTC launched from the Taiyaun Space Center, China (TSC). Debris objects in space refer to the collection of defunct objects orbiting the Earth. Examples of debris include non-operational satellites, rocket bodies, and fragments generated from explosions, collisions, or faulty payload assembly.

Loading next visibility...
Identifier
58430, 2022-151AHY
Orbit
SSO
Country
Flag of CNCN / PRC
Related business
Manufacturer
SAST
Mission
Spacecraft
Bus & Motor
Unknown
Mass
Unknown
Launch date (UTC)
2022-11-11 (4 years ago)
Launch vehicle
Unknown
Launch site
Taiyaun Space Center, China (TSC)
Object type
Payload
Rocket body
Debris
Shape & HBR
Unknown shape, 1.1 m
Radar Cross Section
Small (<0.1 m²)

Expand to show TLE details & history
Last TLE update: 12 hours ago

TLE from 12 hours ago
0 CZ-6A DEB
1 58430U 22151AHY 26235.97206627  .00003016  00000-0  15169-2 0  9992
2 58430  98.9044 234.3407 0085037 175.1240 185.0781 14.15339919 88496
Epoch: 2026-08-23T23:19Z
TLE epoch observation values (Epoch: 2026-08-23T23:19:46.525Z)
Latitude
-0.00003°
Longitude
-87.86361°
Altitude
905.224 km
Speed
7.368 km/s
True Right ascension
15h 37m 21s
True Declination
0° 00' 00"
Sunlit
Object was in daylight at epoch
Visualization orbit readout
Latitude
Unknown
Longitude
Unknown
Altitude
Unknown
Speed
Unknown
Apparent Right ascension
Unknown
Apparent Declination
Unknown
Sunlit
N/A
Visualization observer readout
Local Sidereal Time
02:12:01
Azimuth
Unknown
Elevation
Unknown
Doppler factor
Unknown
Orbital elements
Apogee altitude
899.697 km
Perigee altitude
776.963 km
Semi-major axis
7,216.467 km
Eccentricity
0.0085
Inclination
98.9044°
RAAN
234.3407°
Arg. of periapsis
175.124°
True anomaly
184.99275°
Mean anomaly
185.0781°
Eccentric anomaly
185.03534°
Mean motion
3.54043 °/min
Orbital period
101.68 mins
BSTAR
0.0015169
Loading maneuver chart data...
Computing Atmospheric mass density...
Loading historical data...
Loading historical data...
Loading historical data...
Loading historical data...
Loading historical data...
Loading historical data...
Loading historical data...

Documentation

Showing up to 5 results
|